This is the latest recevied weather packets stored in our database for station/object OE-11149. If no packets are shown the sender has not sent any weather packets the latest 10 day(s).
| Time | Temp. | Humidity | Pressure | Rain* | Wind** | Luminosity | Snow |
|---|---|---|---|---|---|---|---|
| 1788017120 | 13.33° C | 69% | 853 hPa | 0 mm | - | 172 W/m² | - |
| 1788016293 | 13.89° C | 69% | 853 hPa | 0 mm | - | 159 W/m² | - |
| 1788015920 | 13.89° C | 68% | 853.1 hPa | 0 mm | - | 219 W/m² | - |
| 1788015320 | 13.89° C | 66% | 853.1 hPa | 0 mm | - | 179 W/m² | - |
| 1788014493 | 13.89° C | 66% | 853.1 hPa | 0 mm | - | 185 W/m² | - |
| 1788014120 | 13.89° C | 63% | 853 hPa | 0 mm | - | 305 W/m² | - |
| 1788013519 | 13.89° C | 66% | 853.1 hPa | 0 mm | - | 219 W/m² | - |
| 1788012693 | 13.33° C | 64% | 853.2 hPa | 0 mm | - | 212 W/m² | - |
| 1788012320 | 13.89° C | 67% | 853.2 hPa | 0 mm | - | 185 W/m² | - |
| 1788011720 | 13.33° C | 65% | 853.3 hPa | 0 mm | - | 192 W/m² | - |
| 1788010893 | 13.33° C | 66% | 853.2 hPa | 0 mm | - | 245 W/m² | - |
| 1788010520 | 13.33° C | 65% | 853.3 hPa | 0 mm | - | 258 W/m² | - |
| 1788009919 | 13.33° C | 65% | 853.3 hPa | 0 mm | - | 285 W/m² | - |
| 1788009093 | 13.33° C | 64% | 853.3 hPa | 0 mm | - | 272 W/m² | - |
| 1788008720 | 13.33° C | 64% | 853.3 hPa | 0 mm | - | 305 W/m² | - |
| 1788008120 | 13.33° C | 63% | 853.3 hPa | 0 mm | - | 325 W/m² | - |
| 1788007293 | 13.33° C | 63% | 853.4 hPa | 0 mm | - | 291 W/m² | - |
| 1788006920 | 12.78° C | 64% | 853.5 hPa | 0 mm | - | 278 W/m² | - |
| 1788006320 | 13.33° C | 62% | 853.5 hPa | 0 mm | - | 305 W/m² | - |
| 1788005492 | 12.78° C | 63% | 853.5 hPa | 0 mm | - | 318 W/m² | - |
| 1788005120 | 13.33° C | 63% | 853.6 hPa | 0 mm | - | 411 W/m² | - |
| 1788004520 | 13.33° C | 64% | 853.6 hPa | 0 mm | - | 444 W/m² | - |
| 1788003693 | 13.33° C | 64% | 853.6 hPa | 0 mm | - | 503 W/m² | - |
| 1788003320 | 12.78° C | 65% | 853.7 hPa | 0 mm | - | 782 W/m² | - |
| 1788002720 | 12.78° C | 65% | 853.7 hPa | 0 mm | - | 874 W/m² | - |
* Rain latest hour (hover to see other rain measurements)
** Current wind speed in m/s (hover to see current wind gust speed)